#timestamp,LO_Frequency,Hit,StdDev 
1513832415.5,286046997.6,N
1513832435.4,286046996.7,N
1513832455.2,286046998.5,N
1513832475.0,286047000.6,N
1513832475.9,286047000.6,N
1513832495.8,286046998.7,N
1513832515.6,286046997.8,N
1513832535.4,286046999.6,N
1513832555.2,286047002.1,N
1513832575.1,286046999.7,N
1513832576.0,286046999.7,N
1513832595.8,286046999.8,N
1513832615.6,286047001.9,N
1513832635.5,286046998.3,N
1513832655.3,286047000.3,N
1513832675.1,286046998.1,N
1513832695.9,286046995.2,N
1513832715.7,286046997.6,N
1513832735.5,286046997.5,N
1513832755.4,286046993.7,Y
1513832775.2,286046994.5,P
1513832795.0,286046995.6,N
1513832795.9,286046995.6,N
1513832815.8,286046999.0,N
1513832835.6,286047001.8,N
1513832855.4,286047003.6,N
1513832875.3,286046998.2,N
1513832895.1,286046998.8,N
1513832896.0,286046998.8,N
1513832915.8,286046997.4,N
1513832935.7,286046995.0,N
1513832955.5,286046994.5,N
1513832975.3,286046991.7,Y
1513832995.2,286046993.9,P
1513833015.9,286046995.0,N
1513833035.7,286046996.9,N
1513833055.5,286046996.6,N
1513833075.4,286046999.4,N
1513833095.2,286047000.1,N
1513833115.0,286047000.5,N
1513833115.9,286047000.5,N
1513833135.8,286047000.3,N
1513833155.6,286046995.1,N
1513833175.4,286046995.8,N
1513833195.3,286046995.5,N
1513833215.1,286046992.9,Y
1513833235.8,286046990.6,P
1513833255.7,286046993.0,N
1513833275.5,286046991.2,P
1513833295.3,286046992.8,N
1513833315.2,286046990.5,Y
1513833335.9,286046999.2,P
1513833355.7,286046998.8,N
1513833375.6,286046993.4,N
1513833395.4,286046996.2,N
1513833415.2,286046995.1,N
1513833435.1,286046995.1,N
1513833436.0,286046995.1,N
1513833455.8,286046997.4,N
1513833475.6,286047000.0,N
1513833495.4,286047002.8,N
1513833515.3,286046999.7,N
1513833535.1,286046999.7,N
1513833555.8,286047000.1,N
1513833575.7,286046998.5,N
1513833595.5,286046999.6,N
1513833615.3,286046998.3,N
1513833635.2,286047001.5,N
1513833655.9,286047001.5,N
1513833675.7,286047004.3,N
1513833695.6,286047000.5,N
1513833715.4,286047003.2,N
1513833735.2,286047006.2,N
1513833755.0,286047005.5,N
1513833756.0,286047005.5,N
1513833775.8,286047004.4,N
1513833795.6,286046999.0,N
1513833815.4,286047002.2,N
1513833835.3,286047002.9,N
1513833855.1,286047005.3,N
1513833875.8,286047007.1,N
1513833895.7,286047005.9,N
1513833915.5,286047007.4,N
1513833935.3,286047005.6,N
1513833955.2,286047002.1,N
1513833975.9,286046999.9,N
1513833995.7,286047000.0,N
1513834015.6,286047002.6,N
1513834035.4,286047000.9,N
1513834055.2,286047001.1,N
1513834075.1,286047001.0,N
1513834076.0,286047001.0,N
1513834095.8,286047000.7,N
1513834115.6,286047000.6,N
1513834135.4,286047002.1,N
1513834155.3,286047005.2,N
1513834175.1,286047006.6,N
1513834195.9,286047008.0,Y
1513834215.7,286047005.5,P
1513834235.5,286047006.4,P
1513834255.3,286047008.5,P
1513834275.2,286047009.0,Y
1513834295.0,286047004.4,P
1513834295.9,286047004.4,P
1513834315.7,286047003.9,P
1513834335.6,286047005.3,Y
1513834355.4,286046998.3,P
1513834375.2,286046999.9,N
1513834395.1,286047003.0,N
1513834396.0,286047003.0,N
1513834415.8,286047004.4,N
1513834435.6,286047002.4,N
1513834455.5,286047002.7,N
1513834475.3,286046998.2,N
1513834495.1,286047002.8,N
1513834515.9,286046999.8,N
1513834535.7,286047000.2,N
1513834555.5,286047002.8,N
1513834575.4,286046996.5,N
1513834595.2,286047000.0,N
1513834615.0,286046999.7,N
1513834615.9,286046999.7,N
1513834635.8,286046999.0,N
1513834655.6,286046996.1,N
1513834675.4,286046996.2,N
1513834695.3,286046997.4,N
1513834715.1,286046996.5,N
1513834716.0,286046996.5,N
1513834735.8,286046998.9,N
1513834755.6,286046995.7,N
1513834775.5,286046996.7,N
1513834795.3,286046996.8,N
1513834815.1,286046993.7,N
1513834835.9,286046997.7,N
1513834855.7,286046997.8,N
1513834875.5,286046999.2,N
1513834895.4,286047000.2,N
1513834915.2,286047001.7,N
1513834935.0,286047003.5,N
1513834935.9,286047003.5,N
1513834955.8,286047003.0,N
1513834975.6,286047003.2,N
1513834995.4,286047003.9,N
1513835015.2,286047006.0,N
1513835035.1,286047010.3,Y
1513835036.0,286047010.3,P
1513835055.8,286047015.3,N
1513835075.7,286047015.6,N
1513835095.5,286047018.6,N
1513835115.3,286047018.5,N
1513835135.1,286047018.2,N
1513835155.9,286047017.9,N
1513835175.7,286047016.0,N
1513835195.5,286047016.2,N
1513835215.4,286047018.9,Y
1513835235.2,286047008.7,P
1513835255.0,286047008.7,N
1513835255.9,286047008.7,P
1513835275.8,286047010.7,Y
1513835295.6,286047000.3,P
1513835315.4,286047001.0,N
1513835335.3,286046996.9,N
1513835355.1,286046995.8,N
1513835375.8,286046994.1,N
1513835395.7,286046997.1,N
1513835415.5,286046997.7,N
1513835435.3,286046995.0,N
1513835455.2,286046993.4,N
1513835475.9,286046992.4,N
1513835495.7,286046993.2,N
1513835515.6,286046993.0,N
1513835535.4,286046992.2,N
1513835555.2,286046992.7,N
1513835575.0,286046991.5,N
1513835576.0,286046991.5,N
1513835595.8,286046988.3,N
1513835615.6,286046985.1,Y
1513835635.5,286046984.1,P
1513835655.3,286046985.8,N
1513835675.1,286046989.7,N
1513835695.9,286046986.4,Y
1513835715.7,286046998.7,P
1513835735.5,286046995.3,N
1513835755.3,286046996.0,N
1513835775.2,286046996.2,N
1513835795.0,286046996.7,N
1513835795.9,286046996.7,N
1513835815.7,286047004.4,N
1513835835.6,286047003.8,N
1513835855.4,286047002.5,N
1513835875.2,286046998.6,N
1513835895.1,286047000.6,N
1513835896.0,286047000.6,N
1513835915.8,286047002.8,N
1513835935.6,286047005.5,N
1513835955.5,286047012.0,N
1513835975.3,286047015.5,N
1513835995.1,286047018.3,N
